Location: *
(50.8512°N, 5.6907°E)
Time: 23:55:57
(UTC+00:00)

Cosmos 2061 Rocket - Pass Details

Date: 09 April 2020
Orbit: 967 x 1012 km, 82.9° (Epoch: 03 June)

Event Time Altitude Azimuth Distance (km) Brightness Sun altitude
Rises 23:22:32 0° 349° (N) 3,687 8.2 -31.0°
Reaches altitude 10° 23:25:03 10° 349° (NNW) 2,740 7.2 -31.0°
Enters shadow 23:30:55 76° 314° (NW) 1,018 4.0 -31.1°
